| time (UTC) | temp F | wind direction | speed MPH | gust MPH | rain 1hr in | rain 24hr in | rain mn in | humidity % | barometer mb |
| 20260510091011 | 60 | 135 | 0.0 | 1.0 | 0.00 | 0.00 | 0.00 | 48 | 1016.6 |
| 20260510090509 | 60 | 142 | 0.0 | 0.0 | 0.00 | 0.00 | 0.00 | 50 | 1016.4 |
| 20260510090004 | 60 | 96 | 1.0 | 1.0 | 0.00 | 0.00 | 0.00 | 48 | 1016.2 |
| 20260510085459 | 60 | 123 | 1.0 | 1.0 | 0.00 | 0.00 | 0.00 | 48 | 1016.4 |
| 20260510084955 | 60 | 130 | 0.0 | 0.0 | 0.00 | 0.00 | 0.00 | 47 | 1016.5 |
| 20260510084452 | 60 | 154 | 0.0 | 0.0 | 0.00 | 0.00 | 0.00 | 50 | 1016.5 |
| 20260510083948 | 60 | 144 | 0.0 | 0.0 | 0.00 | 0.00 | 0.00 | 51 | 1016.2 |
| 20260510083445 | 60 | 138 | 0.0 | 0.0 | 0.00 | 0.00 | 0.00 | 52 | 1016.0 |
| 20260510082940 | 61 | 131 | 0.0 | 0.0 | 0.00 | 0.00 | 0.00 | 53 | 1015.9 |
| 20260510082439 | 61 | 119 | 1.0 | 1.0 | 0.00 | 0.00 | 0.00 | 55 | 1016.0 |
| 20260510081938 | 61 | 147 | 0.0 | 0.0 | 0.00 | 0.00 | 0.00 | 56 | 1016.0 |
| 20260510081434 | 60 | 119 | 1.0 | 1.0 | 0.00 | 0.00 | 0.00 | 58 | 1015.9 |
| 20260510080930 | 60 | 180 | 1.0 | 2.0 | 0.00 | 0.00 | 0.00 | 60 | 1015.7 |
| 20260510080429 | 60 | 152 | 0.0 | 0.0 | 0.00 | 0.00 | 0.00 | 61 | 1015.7 |
| 20260510075926 | 59 | 152 | 0.0 | 0.0 | 0.00 | 0.00 | 0.00 | 63 | 1015.7 |
| 20260510075424 | 59 | 153 | 0.0 | 0.0 | 0.00 | 0.00 | 0.00 | 65 | 1015.7 |
| 20260510074920 | 59 | 144 | 0.0 | 0.0 | 0.00 | 0.00 | 0.00 | 67 | 1015.5 |
| 20260510074417 | 58 | 146 | 0.0 | 0.0 | 0.00 | 0.00 | 0.00 | 69 | 1015.4 |
| 20260510073914 | 58 | 146 | 0.0 | 0.0 | 0.00 | 0.00 | 0.00 | 71 | 1015.2 |
| 20260510073409 | 58 | 146 | 0.0 | 0.0 | 0.00 | 0.00 | 0.00 | 73 | 1015.2 |
| 20260510072906 | 58 | 146 | 0.0 | 0.0 | 0.00 | 0.00 | 0.00 | 76 | 1015.1 |
| 20260510072403 | 58 | 146 | 0.0 | 0.0 | 0.00 | 0.00 | 0.00 | 74 | 1015.0 |
| 20260510071858 | 58 | 146 | 0.0 | 0.0 | 0.00 | 0.00 | 0.00 | 75 | 1014.6 |
| 20260510071355 | 59 | 146 | 0.0 | 0.0 | 0.00 | 0.00 | 0.00 | 75 | 1014.9 |
| 20260510070854 | 59 | 146 | 0.0 | 0.0 | 0.00 | 0.00 | 0.00 | 74 | 1014.6 |
| 20260510070350 | 59 | 146 | 0.0 | 0.0 | 0.00 | 0.00 | 0.00 | 73 | 1014.6 |
| 20260510065850 | 59 | 164 | 0.0 | 0.0 | 0.00 | 0.00 | 0.00 | 72 | 1014.3 |
| 20260510065347 | 59 | 155 | 0.0 | 0.0 | 0.00 | 0.00 | 0.00 | 71 | 1014.3 |
| 20260510064844 | 60 | 155 | 0.0 | 0.0 | 0.00 | 0.00 | 0.00 | 70 | 1014.3 |
| 20260510064342 | 60 | 156 | 0.0 | 0.0 | 0.00 | 0.00 | 0.00 | 70 | 1014.2 |
| 20260510063838 | 60 | 156 | 0.0 | 0.0 | 0.00 | 0.00 | 0.00 | 70 | 1014.3 |
| 20260510063334 | 60 | 155 | 0.0 | 0.0 | 0.00 | 0.00 | 0.00 | 69 | 1014.5 |
| 20260510062831 | 61 | 156 | 0.0 | 0.0 | 0.00 | 0.00 | 0.00 | 68 | 1014.2 |
| 20260510062327 | 61 | 156 | 0.0 | 0.0 | 0.00 | 0.00 | 0.00 | 68 | 1014.1 |
| 20260510061822 | 61 | 157 | 0.0 | 0.0 | 0.00 | 0.00 | 0.00 | 68 | 1014.1 |
| 20260510061319 | 62 | 165 | 0.0 | 0.0 | 0.00 | 0.00 | 0.00 | 67 | 1014.4 |
| 20260510060815 | 62 | 164 | 0.0 | 0.0 | 0.00 | 0.00 | 0.00 | 65 | 1014.0 |
| 20260510060313 | 62 | 164 | 0.0 | 0.0 | 0.00 | 0.00 | 0.00 | 65 | 1014.2 |
| 20260510055809 | 63 | 166 | 0.0 | 1.0 | 0.00 | 0.00 | 0.00 | 64 | 1014.4 |
| 20260510055308 | 64 | 169 | 0.0 | 1.0 | 0.00 | 0.00 | 0.00 | 61 | 1014.0 |
| 20260510054807 | 64 | 131 | 0.0 | 0.0 | 0.00 | 0.00 | 0.00 | 60 | 1014.1 |
| 20260510054304 | 65 | 130 | 0.0 | 0.0 | 0.00 | 0.00 | 0.00 | 58 | 1014.0 |
| 20260510053758 | 66 | 158 | 0.0 | 0.0 | 0.00 | 0.00 | 0.00 | 54 | 1014.0 |
| 20260510053253 | 66 | 147 | 0.0 | 0.0 | 0.00 | 0.00 | 0.00 | 51 | 1013.5 |
| 20260510052750 | 66 | 177 | 0.0 | 0.0 | 0.00 | 0.00 | 0.00 | 50 | 1013.7 |
| 20260510052240 | 66 | 161 | 0.0 | 0.0 | 0.00 | 0.00 | 0.00 | 51 | 1013.5 |
| 20260510051736 | 66 | 152 | 1.0 | 1.0 | 0.00 | 0.00 | 0.00 | 51 | 1013.2 |
| 20260510051233 | 66 | 120 | 0.0 | 1.0 | 0.00 | 0.00 | 0.00 | 50 | 1012.8 |
| 20260510050730 | 67 | 126 | 1.0 | 1.0 | 0.00 | 0.00 | 0.00 | 49 | 1012.8 |
| 20260510050227 | 67 | 118 | 0.0 | 1.0 | 0.00 | 0.00 | 0.00 | 48 | 1013.2 |
| 20260510045724 | 67 | 141 | 0.0 | 0.0 | 0.00 | 0.00 | 0.00 | 49 | 1012.7 |
| 20260510045220 | 67 | 146 | 0.0 | 0.0 | 0.00 | 0.00 | 0.00 | 47 | 1012.8 |
| 20260510044716 | 67 | 153 | 0.0 | 0.0 | 0.00 | 0.00 | 0.00 | 47 | 1012.5 |
| 20260510044215 | 68 | 152 | 0.0 | 0.0 | 0.00 | 0.00 | 0.00 | 47 | 1012.4 |
| 20260510043709 | 68 | 145 | 0.0 | 0.0 | 0.00 | 0.00 | 0.00 | 46 | 1012.4 |
| 20260510043207 | 68 | 139 | 0.0 | 0.0 | 0.00 | 0.00 | 0.00 | 46 | 1012.3 |
| 20260510042704 | 68 | 100 | 0.0 | 1.0 | 0.00 | 0.00 | 0.00 | 46 | 1012.4 |
| 20260510042200 | 68 | 118 | 1.0 | 1.0 | 0.00 | 0.00 | 0.00 | 45 | 1012.2 |
| 20260510041657 | 68 | 116 | 0.0 | 0.0 | 0.00 | 0.00 | 0.00 | 47 | 1012.3 |
| 20260510041154 | 68 | 134 | 0.0 | 0.0 | 0.00 | 0.00 | 0.00 | 48 | 1012.2 |
| 20260510040651 | 68 | 137 | 0.0 | 0.0 | 0.00 | 0.00 | 0.00 | 48 | 1012.4 |
| 20260510040148 | 68 | 139 | 0.0 | 0.0 | 0.00 | 0.00 | 0.00 | 50 | 1012.2 |
| 20260510035643 | 68 | 122 | 0.0 | 1.0 | 0.00 | 0.00 | 0.00 | 51 | 1012.0 |
| 20260510035139 | 68 | 113 | 2.0 | 2.0 | 0.00 | 0.00 | 0.00 | 56 | 1012.1 |
| 20260510034636 | 67 | 122 | 0.0 | 1.0 | 0.00 | 0.00 | 0.00 | 56 | 1012.6 |
| 20260510034133 | 66 | 148 | 0.0 | 0.0 | 0.00 | 0.00 | 0.00 | 60 | 1012.5 |
| 20260510033629 | 66 | 137 | 0.0 | 0.0 | 0.00 | 0.00 | 0.00 | 60 | 1012.4 |
| 20260510033127 | 66 | 172 | 0.0 | 0.0 | 0.00 | 0.00 | 0.00 | 61 | 1012.4 |
| 20260510032623 | 66 | 153 | 0.0 | 0.0 | 0.00 | 0.00 | 0.00 | 59 | 1011.8 |
| 20260510032119 | 67 | 153 | 0.0 | 0.0 | 0.00 | 0.00 | 0.00 | 60 | 1011.7 |
| 20260510031614 | 67 | 153 | 0.0 | 0.0 | 0.00 | 0.00 | 0.00 | 59 | 1011.7 |
| 20260510031111 | 67 | 153 | 0.0 | 0.0 | 0.00 | 0.00 | 0.00 | 58 | 1011.5 |
| 20260510030605 | 67 | 153 | 0.0 | 0.0 | 0.00 | 0.00 | 0.00 | 57 | 1011.1 |
| 20260510030103 | 67 | 153 | 0.0 | 0.0 | 0.00 | 0.00 | 0.00 | 57 | 1011.2 |
| 20260510025600 | 68 | 150 | 0.0 | 0.0 | 0.00 | 0.00 | 0.00 | 56 | 1011.1 |
| 20260510025058 | 68 | 147 | 0.0 | 0.0 | 0.00 | 0.00 | 0.00 | 55 | 1010.8 |
| 20260510024554 | 68 | 159 | 0.0 | 0.0 | 0.00 | 0.00 | 0.00 | 55 | 1010.8 |
| 20260510024050 | 68 | 167 | 0.0 | 0.0 | 0.00 | 0.00 | 0.00 | 54 | 1010.8 |
| 20260510023547 | 69 | 167 | 0.0 | 0.0 | 0.00 | 0.00 | 0.00 | 54 | 1010.8 |
| 20260510023044 | 69 | 170 | 1.0 | 1.0 | 0.00 | 0.00 | 0.00 | 54 | 1010.2 |
| 20260510022538 | 70 | 162 | 0.0 | 0.0 | 0.00 | 0.00 | 0.00 | 51 | 1010.2 |
| 20260510022037 | 70 | 163 | 0.0 | 0.0 | 0.00 | 0.00 | 0.00 | 50 | 1010.0 |
| 20260510021535 | 71 | 161 | 0.0 | 0.0 | 0.00 | 0.00 | 0.00 | 49 | 1009.8 |
| 20260510021032 | 72 | 130 | 0.0 | 0.0 | 0.00 | 0.00 | 0.00 | 45 | 1009.8 |
| 20260510020526 | 72 | 130 | 0.0 | 0.0 | 0.00 | 0.00 | 0.00 | 44 | 1009.6 |
| 20260510020022 | 72 | 136 | 0.0 | 0.0 | 0.00 | 0.00 | 0.00 | 44 | 1009.7 |
| 20260510015518 | 73 | 138 | 0.0 | 0.0 | 0.00 | 0.00 | 0.00 | 44 | 1009.7 |
| 20260510015014 | 73 | 128 | 0.0 | 0.0 | 0.00 | 0.00 | 0.00 | 43 | 1009.5 |
| 20260510014511 | 73 | 123 | 0.0 | 1.0 | 0.00 | 0.00 | 0.00 | 43 | 1009.8 |
| 20260510014008 | 73 | 124 | 0.0 | 0.0 | 0.00 | 0.00 | 0.00 | 44 | 1009.5 |
| 20260510013502 | 73 | 104 | 0.0 | 1.0 | 0.00 | 0.00 | 0.00 | 43 | 1009.3 |
| 20260510012959 | 73 | 163 | 0.0 | 0.0 | 0.00 | 0.00 | 0.00 | 43 | 1009.1 |
| 20260510012453 | 73 | 155 | 1.0 | 1.0 | 0.00 | 0.00 | 0.00 | 43 | 1009.2 |
| 20260510011948 | 74 | 133 | 0.0 | 0.0 | 0.00 | 0.00 | 0.00 | 43 | 1008.8 |
| 20260510011443 | 73 | 25 | 2.0 | 5.0 | 0.00 | 0.00 | 0.00 | 43 | 1009.0 |
| 20260510010940 | 73 | 131 | 2.0 | 2.0 | 0.00 | 0.00 | 0.00 | 44 | 1009.0 |
| 20260510010437 | 74 | 134 | 0.0 | 0.0 | 0.00 | 0.00 | 0.00 | 43 | 1009.0 |
| 20260510005933 | 74 | 135 | 0.0 | 0.0 | 0.00 | 0.00 | 0.00 | 43 | 1009.1 |
| 20260510005430 | 75 | 144 | 0.0 | 0.0 | 0.00 | 0.00 | 0.00 | 43 | 1008.9 |
| 20260510004927 | 75 | 148 | 0.0 | 0.0 | 0.00 | 0.00 | 0.00 | 43 | 1008.6 |
| 20260510004424 | 75 | 334 | 0.0 | 2.0 | 0.00 | 0.00 | 0.00 | 42 | 1008.7 |
| 20260510003923 | 75 | 113 | 1.0 | 1.0 | 0.00 | 0.00 | 0.00 | 42 | 1008.4 |
| 20260510003419 | 75 | 133 | 1.0 | 2.0 | 0.00 | 0.00 | 0.00 | 41 | 1008.3 |
| 20260510002918 | 76 | 275 | 0.0 | 0.0 | 0.00 | 0.00 | 0.00 | 41 | 1008.2 |
| 20260510002416 | 76 | 151 | 0.0 | 0.0 | 0.00 | 0.00 | 0.00 | 41 | 1008.2 |
| 20260510001912 | 76 | 99 | 1.0 | 2.0 | 0.00 | 0.00 | 0.00 | 39 | 1008.2 |
| 20260510001410 | 76 | 84 | 1.0 | 2.0 | 0.00 | 0.00 | 0.00 | 40 | 1008.1 |
| 20260510000906 | 77 | 85 | 2.0 | 2.0 | 0.00 | 0.00 | 0.00 | 38 | 1007.9 |
| 20260510000404 | 77 | 143 | 0.0 | 1.0 | 0.00 | 0.00 | 0.00 | 38 | 1008.3 |
| 20260509235859 | 78 | 64 | 2.0 | 2.0 | 0.00 | 0.00 | 0.00 | 37 | 1008.0 |
| 20260509235356 | 78 | 65 | 1.0 | 2.0 | 0.00 | 0.00 | 0.00 | 37 | 1007.8 |
| 20260509234852 | 78 | 63 | 1.0 | 2.0 | 0.00 | 0.00 | 0.00 | 36 | 1007.8 |
| 20260509234350 | 78 | 158 | 0.0 | 1.0 | 0.00 | 0.00 | 0.00 | 37 | 1007.8 |
| 20260509233848 | 78 | 33 | 4.0 | 7.0 | 0.00 | 0.00 | 0.00 | 36 | 1007.7 |
| 20260509233345 | 78 | 87 | 2.0 | 3.0 | 0.00 | 0.00 | 0.00 | 36 | 1007.7 |
| 20260509232840 | 78 | 118 | 1.0 | 1.0 | 0.00 | 0.00 | 0.00 | 37 | 1007.7 |
| 20260509232339 | 78 | 193 | 1.0 | 2.0 | 0.00 | 0.00 | 0.00 | 36 | 1007.7 |
| 20260509231834 | 79 | 283 | 1.0 | 2.0 | 0.00 | 0.00 | 0.00 | 36 | 1007.6 |
| 20260509231331 | 80 | 16 | 1.0 | 6.0 | 0.00 | 0.00 | 0.00 | 34 | 1007.4 |
| 20260509230829 | 81 | 95 | 1.0 | 1.0 | 0.00 | 0.00 | 0.00 | 32 | 1007.5 |
| 20260509230326 | 81 | 91 | 2.0 | 3.0 | 0.00 | 0.00 | 0.00 | 30 | 1007.1 |
| 20260509225821 | 81 | 135 | 1.0 | 2.0 | 0.00 | 0.00 | 0.00 | 29 | 1007.1 |
| 20260509225318 | 81 | 160 | 1.0 | 2.0 | 0.00 | 0.00 | 0.00 | 29 | 1006.9 |
| 20260509224814 | 81 | 244 | 3.0 | 3.0 | 0.00 | 0.00 | 0.00 | 29 | 1007.1 |
| 20260509224310 | 81 | 347 | 1.0 | 3.0 | 0.00 | 0.00 | 0.00 | 29 | 1007.0 |
| 20260509223807 | 83 | 199 | 12.0 | 15.0 | 0.00 | 0.00 | 0.00 | 28 | 1007.2 |
| 20260509223304 | 83 | 160 | 1.0 | 2.0 | 0.00 | 0.00 | 0.00 | 28 | 1006.6 |
| 20260509222800 | 84 | 163 | 0.0 | 0.0 | 0.00 | 0.00 | 0.00 | 28 | 1006.5 |
| 20260509222250 | 84 | 272 | 1.0 | 3.0 | 0.00 | 0.00 | 0.00 | 28 | 1006.9 |
| 20260509221746 | 84 | 165 | 0.0 | 1.0 | 0.00 | 0.00 | 0.00 | 29 | 1006.7 |
| 20260509221243 | 84 | 242 | 2.0 | 2.0 | 0.00 | 0.00 | 0.00 | 27 | 1006.5 |
| 20260509220739 | 84 | 170 | 1.0 | 1.0 | 0.00 | 0.00 | 0.00 | 27 | 1006.5 |
| 20260509220236 | 85 | 283 | 3.0 | 6.0 | 0.00 | 0.00 | 0.00 | 27 | 1006.5 |
| 20260509215731 | 86 | 111 | 0.0 | 1.0 | 0.00 | 0.00 | 0.00 | 26 | 1006.4 |
| 20260509215228 | 87 | 115 | 0.0 | 0.0 | 0.00 | 0.00 | 0.00 | 26 | 1006.5 |
| 20260509214725 | 88 | 182 | 2.0 | 3.0 | 0.00 | 0.00 | 0.00 | 25 | 1006.4 |
| 20260509214222 | 87 | 94 | 2.0 | 2.0 | 0.00 | 0.00 | 0.00 | 25 | 1006.2 |
| 20260509213719 | 86 | 154 | 1.0 | 2.0 | 0.00 | 0.00 | 0.00 | 25 | 1006.2 |
| 20260509213214 | 87 | 115 | 1.0 | 2.0 | 0.00 | 0.00 | 0.00 | 27 | 1006.5 |
| 20260509212712 | 87 | 286 | 2.0 | 3.0 | 0.00 | 0.00 | 0.00 | 27 | 1006.3 |
| 20260509212209 | 87 | 325 | 2.0 | 2.0 | 0.00 | 0.00 | 0.00 | 27 | 1006.4 |
| 20260509211705 | 87 | 171 | 3.0 | 5.0 | 0.00 | 0.00 | 0.00 | 28 | 1006.5 |
| 20260509211201 | 87 | 174 | 2.0 | 2.0 | 0.00 | 0.00 | 0.00 | 29 | 1006.4 |
| 20260509210658 | 87 | 161 | 2.0 | 3.0 | 0.00 | 0.00 | 0.00 | 29 | 1006.4 |
| 20260509210155 | 86 | 99 | 1.0 | 2.0 | 0.00 | 0.00 | 0.00 | 29 | 1006.5 |
| 20260509205650 | 87 | 30 | 4.0 | 5.0 | 0.00 | 0.00 | 0.00 | 29 | 1006.7 |
| 20260509205150 | 87 | 129 | 1.0 | 1.0 | 0.00 | 0.00 | 0.00 | 29 | 1006.6 |
| 20260509204646 | 87 | 184 | 3.0 | 3.0 | 0.00 | 0.00 | 0.00 | 29 | 1006.7 |
| 20260509204142 | 87 | 121 | 0.0 | 0.0 | 0.00 | 0.00 | 0.00 | 32 | 1006.9 |
| 20260509203639 | 87 | 190 | 1.0 | 2.0 | 0.00 | 0.00 | 0.00 | 30 | 1007.0 |
| 20260509203137 | 86 | 173 | 1.0 | 2.0 | 0.00 | 0.00 | 0.00 | 29 | 1007.0 |
| 20260509202637 | 86 | 216 | 6.0 | 8.0 | 0.00 | 0.00 | 0.00 | 29 | 1007.0 |
| 20260509202133 | 85 | 160 | 2.0 | 3.0 | 0.00 | 0.00 | 0.00 | 29 | 1006.9 |
| 20260509201627 | 85 | 325 | 5.0 | 8.0 | 0.00 | 0.00 | 0.00 | 29 | 1007.0 |
| 20260509201125 | 86 | 205 | 5.0 | 7.0 | 0.00 | 0.00 | 0.00 | 30 | 1007.1 |
| 20260509200621 | 86 | 89 | 2.0 | 3.0 | 0.00 | 0.00 | 0.00 | 29 | 1007.2 |
| 20260509200111 | 86 | 143 | 3.0 | 5.0 | 0.00 | 0.00 | 0.00 | 31 | 1007.2 |
| 20260509195607 | 86 | 109 | 3.0 | 5.0 | 0.00 | 0.00 | 0.00 | 29 | 1007.1 |
| 20260509195101 | 85 | 160 | 0.0 | 1.0 | 0.00 | 0.00 | 0.00 | 32 | 1007.4 |
| 20260509194601 | 85 | 226 | 2.0 | 5.0 | 0.00 | 0.00 | 0.00 | 30 | 1007.3 |
| 20260509194059 | 86 | 191 | 2.0 | 3.0 | 0.00 | 0.00 | 0.00 | 31 | 1007.3 |
| 20260509193554 | 86 | 175 | 0.0 | 1.0 | 0.00 | 0.00 | 0.00 | 32 | 1007.5 |
| 20260509193051 | 85 | 320 | 2.0 | 3.0 | 0.00 | 0.00 | 0.00 | 30 | 1007.7 |
| 20260509192548 | 85 | 1 | 1.0 | 2.0 | 0.00 | 0.00 | 0.00 | 31 | 1007.6 |
| 20260509192042 | 85 | 178 | 2.0 | 3.0 | 0.00 | 0.00 | 0.00 | 31 | 1007.6 |
| 20260509191537 | 85 | 162 | 0.0 | 0.0 | 0.00 | 0.00 | 0.00 | 33 | 1007.5 |
| 20260509191033 | 84 | 152 | 2.0 | 3.0 | 0.00 | 0.00 | 0.00 | 33 | 1007.5 |
| 20260509190530 | 84 | 288 | 3.0 | 5.0 | 0.00 | 0.00 | 0.00 | 32 | 1007.5 |
| 20260509190029 | 84 | 71 | 1.0 | 2.0 | 0.00 | 0.00 | 0.00 | 32 | 1007.8 |
| 20260509185526 | 84 | 179 | 1.0 | 2.0 | 0.00 | 0.00 | 0.00 | 34 | 1007.7 |
| 20260509185021 | 84 | 170 | 1.0 | 2.0 | 0.00 | 0.00 | 0.00 | 35 | 1007.8 |
| 20260509184520 | 84 | 43 | 7.0 | 10.0 | 0.00 | 0.00 | 0.00 | 32 | 1007.9 |
| 20260509184016 | 84 | 209 | 2.0 | 3.0 | 0.00 | 0.00 | 0.00 | 34 | 1007.8 |
| 20260509183511 | 84 | 165 | 0.0 | 0.0 | 0.00 | 0.00 | 0.00 | 35 | 1008.0 |
| 20260509183007 | 83 | 181 | 0.0 | 1.0 | 0.00 | 0.00 | 0.00 | 36 | 1007.8 |
| 20260509182504 | 83 | 222 | 2.0 | 2.0 | 0.00 | 0.00 | 0.00 | 33 | 1008.0 |
| 20260509182001 | 83 | 168 | 1.0 | 1.0 | 0.00 | 0.00 | 0.00 | 34 | 1008.1 |
| 20260509181459 | 82 | 340 | 0.0 | 1.0 | 0.00 | 0.00 | 0.00 | 36 | 1008.3 |
| 20260509180956 | 82 | 204 | 3.0 | 6.0 | 0.00 | 0.00 | 0.00 | 34 | 1008.2 |
| 20260509180451 | 82 | 202 | 3.0 | 5.0 | 0.00 | 0.00 | 0.00 | 38 | 1008.3 |
| 20260509175949 | 82 | 244 | 0.0 | 1.0 | 0.00 | 0.00 | 0.00 | 37 | 1008.3 |
| 20260509175445 | 80 | 210 | 0.0 | 1.0 | 0.00 | 0.00 | 0.00 | 39 | 1008.5 |
| 20260509174941 | 81 | 283 | 3.0 | 5.0 | 0.00 | 0.00 | 0.00 | 37 | 1008.3 |
| 20260509174437 | 82 | 176 | 0.0 | 0.0 | 0.00 | 0.00 | 0.00 | 40 | 1008.6 |
| 20260509173933 | 81 | 26 | 1.0 | 2.0 | 0.00 | 0.00 | 0.00 | 37 | 1008.6 |
| 20260509173427 | 80 | 161 | 0.0 | 0.0 | 0.00 | 0.00 | 0.00 | 38 | 1008.6 |
| 20260509172924 | 80 | 136 | 1.0 | 2.0 | 0.00 | 0.00 | 0.00 | 38 | 1008.5 |
| 20260509172421 | 81 | 224 | 1.0 | 1.0 | 0.00 | 0.00 | 0.00 | 37 | 1008.6 |
| 20260509171916 | 80 | 168 | 1.0 | 2.0 | 0.00 | 0.00 | 0.00 | 38 | 1008.9 |
| 20260509171413 | 81 | 160 | 1.0 | 3.0 | 0.00 | 0.00 | 0.00 | 37 | 1008.9 |
| 20260509170909 | 80 | 166 | 0.0 | 1.0 | 0.00 | 0.00 | 0.00 | 39 | 1008.8 |
| 20260509170405 | 79 | 193 | 1.0 | 2.0 | 0.00 | 0.00 | 0.00 | 40 | 1008.8 |
| 20260509165901 | 80 | 230 | 3.0 | 5.0 | 0.00 | 0.00 | 0.00 | 38 | 1009.1 |
| 20260509165355 | 80 | 199 | 2.0 | 3.0 | 0.00 | 0.00 | 0.00 | 40 | 1009.0 |
| 20260509164851 | 79 | 135 | 0.0 | 0.0 | 0.00 | 0.00 | 0.00 | 38 | 1008.9 |
| 20260509164347 | 79 | 159 | 1.0 | 2.0 | 0.00 | 0.00 | 0.00 | 41 | 1008.9 |
| 20260509163843 | 78 | 165 | 0.0 | 1.0 | 0.00 | 0.00 | 0.00 | 39 | 1008.8 |
| 20260509163340 | 78 | 262 | 3.0 | 3.0 | 0.00 | 0.00 | 0.00 | 39 | 1009.0 |
| 20260509162839 | 78 | 153 | 0.0 | 0.0 | 0.00 | 0.00 | 0.00 | 40 | 1009.1 |
| 20260509162338 | 77 | 151 | 0.0 | 1.0 | 0.00 | 0.00 | 0.00 | 42 | 1009.0 |
| 20260509161834 | 77 | 129 | 0.0 | 0.0 | 0.00 | 0.00 | 0.00 | 43 | 1009.0 |
| 20260509161331 | 77 | 227 | 2.0 | 3.0 | 0.00 | 0.00 | 0.00 | 40 | 1008.8 |
| 20260509160826 | 77 | 180 | 2.0 | 3.0 | 0.00 | 0.00 | 0.00 | 43 | 1009.2 |
| 20260509160322 | 76 | 162 | 1.0 | 2.0 | 0.00 | 0.00 | 0.00 | 43 | 1008.9 |
| 20260509155818 | 77 | 200 | 1.0 | 3.0 | 0.00 | 0.00 | 0.00 | 44 | 1008.9 |
| 20260509155315 | 76 | 156 | 0.0 | 0.0 | 0.00 | 0.00 | 0.00 | 45 | 1009.0 |
| 20260509154811 | 75 | 171 | 1.0 | 2.0 | 0.00 | 0.00 | 0.00 | 43 | 1008.7 |
| 20260509154308 | 75 | 1 | 2.0 | 2.0 | 0.00 | 0.00 | 0.00 | 44 | 1009.0 |
| 20260509153805 | 74 | 132 | 1.0 | 1.0 | 0.00 | 0.00 | 0.00 | 44 | 1008.9 |
| 20260509153301 | 75 | 173 | 1.0 | 2.0 | 0.00 | 0.00 | 0.00 | 45 | 1009.0 |
| 20260509152758 | 74 | 161 | 1.0 | 1.0 | 0.00 | 0.00 | 0.00 | 46 | 1009.0 |
| 20260509152254 | 74 | 192 | 1.0 | 2.0 | 0.00 | 0.00 | 0.00 | 48 | 1008.9 |
| 20260509151751 | 74 | 346 | 1.0 | 2.0 | 0.00 | 0.00 | 0.00 | 46 | 1008.7 |
| 20260509151247 | 73 | 157 | 0.0 | 0.0 | 0.00 | 0.00 | 0.00 | 50 | 1009.0 |
| 20260509150746 | 73 | 153 | 1.0 | 2.0 | 0.00 | 0.00 | 0.00 | 47 | 1008.8 |
| 20260509150244 | 73 | 164 | 0.0 | 0.0 | 0.00 | 0.00 | 0.00 | 50 | 1008.7 |
| 20260509145740 | 72 | 151 | 0.0 | 0.0 | 0.00 | 0.00 | 0.00 | 52 | 1008.7 |
| 20260509145239 | 71 | 159 | 0.0 | 0.0 | 0.00 | 0.00 | 0.00 | 52 | 1008.8 |
| 20260509144737 | 71 | 174 | 1.0 | 2.0 | 0.00 | 0.00 | 0.00 | 55 | 1008.9 |
| 20260509144233 | 70 | 80 | 1.0 | 2.0 | 0.00 | 0.00 | 0.00 | 56 | 1008.9 |
| 20260509143731 | 69 | 145 | 1.0 | 1.0 | 0.00 | 0.00 | 0.00 | 59 | 1008.6 |
| 20260509143228 | 68 | 298 | 1.0 | 1.0 | 0.00 | 0.00 | 0.00 | 61 | 1008.9 |
| 20260509142724 | 68 | 174 | 0.0 | 0.0 | 0.00 | 0.00 | 0.00 | 63 | 1009.0 |
| 20260509142221 | 66 | 140 | 1.0 | 1.0 | 0.00 | 0.00 | 0.00 | 67 | 1008.9 |
| 20260509141716 | 65 | 169 | 1.0 | 1.0 | 0.00 | 0.00 | 0.00 | 69 | 1008.7 |
| 20260509141214 | 65 | 304 | 1.0 | 3.0 | 0.00 | 0.00 | 0.00 | 70 | 1008.9 |
| 20260509140710 | 64 | 196 | 2.0 | 2.0 | 0.00 | 0.00 | 0.00 | 71 | 1009.0 |
| 20260509140208 | 63 | 174 | 1.0 | 1.0 | 0.00 | 0.00 | 0.00 | 73 | 1008.8 |
| 20260509135705 | 63 | 151 | 2.0 | 2.0 | 0.00 | 0.00 | 0.00 | 75 | 1009.0 |
| 20260509135203 | 62 | 182 | 1.0 | 1.0 | 0.00 | 0.00 | 0.00 | 76 | 1008.8 |
| 20260509134659 | 62 | 157 | 1.0 | 2.0 | 0.00 | 0.00 | 0.00 | 77 | 1008.9 |
| 20260509134157 | 61 | 269 | 1.0 | 1.0 | 0.00 | 0.00 | 0.00 | 78 | 1009.0 |
| 20260509133653 | 60 | 171 | 1.0 | 1.0 | 0.00 | 0.00 | 0.00 | 80 | 1009.1 |
| 20260509133151 | 60 | 164 | 0.0 | 0.0 | 0.00 | 0.00 | 0.00 | 83 | 1008.8 |
| 20260509132649 | 59 | 164 | 0.0 | 0.0 | 0.00 | 0.00 | 0.00 | 87 | 1009.0 |
| 20260509132147 | 58 | 205 | 4.0 | 5.0 | 0.00 | 0.00 | 0.00 | 93 | 1008.7 |
| 20260509131643 | 57 | 163 | 0.0 | 0.0 | 0.00 | 0.00 | 0.00 | 96 | 1009.0 |
| 20260509131140 | 57 | 147 | 0.0 | 0.0 | 0.00 | 0.00 | 0.00 | 97 | 1008.7 |
| 20260509130636 | 56 | 220 | 0.0 | 0.0 | 0.00 | 0.00 | 0.00 | 98 | 1008.7 |
| 20260509130132 | 56 | 142 | 0.0 | 1.0 | 0.00 | 0.00 | 0.00 | 98 | 1008.6 |
| 20260509125629 | 55 | 164 | 0.0 | 0.0 | 0.00 | 0.00 | 0.00 | 99 | 1008.5 |
| 20260509125126 | 55 | 122 | 1.0 | 1.0 | 0.00 | 0.00 | 0.00 | 99 | 1008.5 |
| 20260509124622 | 54 | 126 | 0.0 | 1.0 | 0.00 | 0.00 | 0.00 | 99 | 1008.3 |
| 20260509124119 | 54 | 139 | 0.0 | 0.0 | 0.00 | 0.00 | 0.00 | 99 | 1008.3 |
| 20260509123617 | 53 | 131 | 0.0 | 0.0 | 0.00 | 0.00 | 0.00 | 99 | 1008.5 |
| 20260509123114 | 52 | 152 | 0.0 | 0.0 | 0.00 | 0.00 | 0.00 | 99 | 1008.3 |
| 20260509122610 | 51 | 145 | 0.0 | 0.0 | 0.00 | 0.00 | 0.00 | 99 | 1008.4 |
| 20260509122107 | 51 | 144 | 0.0 | 0.0 | 0.00 | 0.00 | 0.00 | 99 | 1008.6 |
| 20260509121604 | 51 | 146 | 0.0 | 0.0 | 0.00 | 0.00 | 0.00 | 99 | 1008.3 |
| 20260509121101 | 50 | 146 | 0.0 | 0.0 | 0.00 | 0.00 | 0.00 | 98 | 1008.2 |
| 20260509120559 | 50 | 146 | 0.0 | 0.0 | 0.00 | 0.00 | 0.00 | 98 | 1008.3 |
| 20260509120057 | 50 | 145 | 0.0 | 0.0 | 0.00 | 0.00 | 0.00 | 98 | 1008.2 |
| 20260509115554 | 51 | 146 | 0.0 | 0.0 | 0.00 | 0.00 | 0.00 | 98 | 1008.1 |
| 20260509115052 | 51 | 146 | 0.0 | 0.0 | 0.00 | 0.00 | 0.00 | 98 | 1008.1 |
| 20260509114550 | 51 | 155 | 0.0 | 0.0 | 0.00 | 0.00 | 0.00 | 99 | 1007.9 |
| 20260509114048 | 50 | 133 | 0.0 | 0.0 | 0.00 | 0.00 | 0.00 | 99 | 1008.0 |
| 20260509113546 | 50 | 133 | 0.0 | 0.0 | 0.00 | 0.00 | 0.00 | 98 | 1007.6 |
| 20260509113044 | 50 | 132 | 0.0 | 0.0 | 0.00 | 0.00 | 0.00 | 99 | 1007.8 |
| 20260509112540 | 49 | 132 | 0.0 | 0.0 | 0.00 | 0.00 | 0.00 | 98 | 1007.6 |
| 20260509112037 | 49 | 132 | 0.0 | 0.0 | 0.00 | 0.00 | 0.00 | 98 | 1007.6 |
| 20260509111534 | 49 | 132 | 0.0 | 0.0 | 0.00 | 0.00 | 0.00 | 98 | 1007.5 |
| 20260509111031 | 49 | 132 | 0.0 | 0.0 | 0.00 | 0.00 | 0.00 | 98 | 1007.5 |
| 20260509110528 | 49 | 132 | 0.0 | 0.0 | 0.00 | 0.00 | 0.00 | 98 | 1007.3 |
| 20260509110025 | 49 | 132 | 0.0 | 0.0 | 0.00 | 0.00 | 0.00 | 98 | 1007.5 |
| 20260509105523 | 49 | 132 | 0.0 | 0.0 | 0.00 | 0.00 | 0.00 | 98 | 1007.7 |
| 20260509105021 | 50 | 132 | 0.0 | 0.0 | 0.00 | 0.00 | 0.00 | 98 | 1007.6 |
| 20260509104517 | 50 | 131 | 0.0 | 0.0 | 0.00 | 0.00 | 0.00 | 98 | 1007.4 |
| 20260509104014 | 50 | 131 | 0.0 | 0.0 | 0.00 | 0.00 | 0.00 | 98 | 1007.6 |
| 20260509103512 | 50 | 144 | 0.0 | 0.0 | 0.00 | 0.00 | 0.00 | 98 | 1007.6 |
| 20260509103010 | 51 | 135 | 0.0 | 0.0 | 0.00 | 0.00 | 0.00 | 98 | 1007.5 |
| 20260509102507 | 50 | 163 | 0.0 | 0.0 | 0.00 | 0.00 | 0.00 | 98 | 1007.6 |
| 20260509102004 | 51 | 163 | 0.0 | 0.0 | 0.00 | 0.00 | 0.00 | 98 | 1007.4 |
| 20260509101500 | 51 | 162 | 0.0 | 0.0 | 0.00 | 0.00 | 0.00 | 98 | 1007.6 |
| 20260509100957 | 50 | 163 | 0.0 | 0.0 | 0.00 | 0.00 | 0.00 | 98 | 1007.5 |
| 20260509100454 | 51 | 163 | 0.0 | 0.0 | 0.00 | 0.00 | 0.00 | 98 | 1007.7 |
| 20260509095951 | 51 | 164 | 0.0 | 0.0 | 0.00 | 0.00 | 0.00 | 98 | 1007.7 |
| 20260509095448 | 51 | 164 | 0.0 | 0.0 | 0.00 | 0.00 | 0.00 | 98 | 1007.8 |
| 20260509094945 | 52 | 164 | 0.0 | 0.0 | 0.00 | 0.00 | 0.00 | 98 | 1007.8 |
| 20260509094441 | 52 | 164 | 0.0 | 0.0 | 0.00 | 0.00 | 0.00 | 98 | 1007.8 |
| 20260509093939 | 52 | 162 | 0.0 | 0.0 | 0.00 | 0.00 | 0.00 | 98 | 1007.8 |
| 20260509093436 | 51 | 161 | 0.0 | 0.0 | 0.00 | 0.00 | 0.00 | 98 | 1007.9 |
| 20260509092934 | 51 | 153 | 0.0 | 0.0 | 0.00 | 0.00 | 0.00 | 98 | 1007.8 |
| 20260509092432 | 51 | 152 | 0.0 | 0.0 | 0.00 | 0.00 | 0.00 | 98 | 1007.6 |
| 20260509091931 | 51 | 152 | 0.0 | 0.0 | 0.00 | 0.00 | 0.00 | 98 | 1007.6 |
| 20260509091427 | 51 | 152 | 0.0 | 0.0 | 0.00 | 0.00 | 0.00 | 98 | 1007.7 |